Location: ????? ???????
(25.7275°N, 32.5929°E)
Time: 11:52:52
(UTC+00:00)

Lacrosse 4 Rocket - Pass Details

Date: 02 March 2021
Orbit: 537 x 620 km, 68.0° (Epoch: 16 April)

Event Time Altitude Azimuth Distance (km) Brightness Sun altitude
Rises 17:24:04 0° 201° (SSW) 2,771 5.1 -21.5°
Reaches altitude 10° 17:26:15 10° 201° (SSW) 1,889 4.2 -22.0°
Maximum altitude 17:30:31 89° 296° (WNW) 596 1.3 -23.0°
Enters shadow 17:31:13 62° 19° (NNE) 669 1.5 -23.1°
